Погода в Билитуе

Россия / Забайкальский край     49°49′34″N   117°05′35″E
темп.,
°C
ветер,
м/с
пор.,
м/с
влажн.,
%
обл.,
%
осадки,
мм/ч
давл.,
гПа
погр.,
м
28 февраля, вс
вс2800:00−18сз716840 0.0 1030464
03:00−21сз6148221 0.0 1033345
06:00−25зсз45840 0.0 103578
09:00−26з35860 0.0 103877
12:00−21з47890 0.0 1038283
15:00−18з58860 0.0 1037577
18:00−20зюз46925 0.0 103788
21:00−22зюз34852 0.0 103940
1 марта, пн
пн100:00−24з23890 0.0 104020
03:00−26зюз11940 0.0 104120
06:00−26з11810 0.0 103920
09:00−26зюз11720 0.0 104020
12:00−20зюз11690 0.0 103995
15:00−18юз23720 0.0 1035241
18:00−21ю22810 0.0 103320
21:00−22ююв33826 0.0 103321
2 марта, вт
вт200:00−23ююв449249 0.0 103263
03:00−24ююв449824 0.0 103061
06:00−25ююв3410027 0.0 102747
09:00−24юв3410063 0.0 102696
12:00−20юв4697100 0.0 1023237
15:00−16юв469194 0.0 1019328
18:00−17вюв339314 0.0 101723
21:00−19юв23967 0.0 101820
3 марта, ср
ср300:00−19ююв239420 0.0 101620
03:00−17ю238758 0.0 101321
06:00−15ююв1285100 0.0 101120
09:00−13юз0184100 0.0 101021
12:00−11з239093 0.0 1010216
15:00−10з349170 0.0 1009207
18:00−12зюз23890 0.0 100921
21:00−11юз488650 0.0 1009150
4 марта, чт
чт400:00−10з41190100 0.0 1010331
03:00−17сз349467 0.0 101235
06:00−20зсз7157034 0.0 1017362
09:00−24сз478723 0.0 1020162
12:00−20сз358826 0.0 1022302
15:00−18сз578113 0.0 1024521
18:00−21сз510840 0.0 1027307
21:00−26сз33850 0.0 103222